This is the latest recevied weather packets stored in our database for station/object SR9NSK-1. If no packets are shown the sender has not sent any weather packets the latest 1 day(s).
| Time | Temp. | Humidity | Pressure | Rain* | Wind** | Luminosity | Snow |
|---|---|---|---|---|---|---|---|
| 1778018365 | 10° C | 52% | 868.5 hPa | - | 8.05 m/s, 122° | - | - |
| 1778018245 | 10.56° C | 52% | 868.6 hPa | - | 7.15 m/s, 135° | - | - |
| 1778018126 | 10° C | 52% | 868.6 hPa | - | 5.36 m/s, 131° | - | - |
| 1778018003 | 10.56° C | 52% | 868.6 hPa | - | 5.81 m/s, 129° | - | - |
| 1778017883 | 10.56° C | 52% | 868.6 hPa | - | 6.26 m/s, 126° | - | - |
| 1778017763 | 10.56° C | 52% | 868.6 hPa | - | 8.05 m/s, 133° | - | - |
| 1778017643 | 10° C | 52% | 868.6 hPa | - | 6.71 m/s, 138° | - | - |
| 1778017523 | 10° C | 52% | 868.7 hPa | - | 4.92 m/s, 125° | - | - |
| 1778017403 | 10° C | 52% | 868.7 hPa | - | 6.71 m/s, 152° | - | - |
| 1778017283 | 10° C | 52% | 868.7 hPa | - | 4.92 m/s, 142° | - | - |
| 1778017163 | 10° C | 52% | 868.8 hPa | - | 6.26 m/s, 134° | - | - |
| 1778017043 | 10° C | 52% | 868.8 hPa | - | 5.81 m/s, 150° | - | - |
| 1778016923 | 10.56° C | 52% | 868.8 hPa | - | 4.02 m/s, 141° | - | - |
| 1778016801 | 10.56° C | 52% | 868.8 hPa | - | 5.81 m/s, 138° | - | - |
| 1778016681 | 10.56° C | 52% | 868.9 hPa | - | 6.71 m/s, 127° | - | - |
| 1778016561 | 10.56° C | 52% | 868.9 hPa | - | 7.15 m/s, 119° | - | - |
| 1778016441 | 10.56° C | 52% | 868.9 hPa | - | 7.15 m/s, 123° | - | - |
| 1778016321 | 10° C | 52% | 868.9 hPa | - | 6.26 m/s, 132° | - | - |
| 1778016201 | 10.56° C | 52% | 868.9 hPa | - | 6.26 m/s, 138° | - | - |
| 1778016081 | 10.56° C | 52% | 869 hPa | - | 5.36 m/s, 131° | - | - |
| 1778015961 | 10.56° C | 52% | 869.2 hPa | - | 4.47 m/s, 128° | - | - |
| 1778015841 | 10.56° C | 52% | 869.2 hPa | - | 4.02 m/s, 138° | - | - |
| 1778015721 | 10.56° C | 52% | 869.1 hPa | - | 6.26 m/s, 141° | - | - |
| 1778015590 | 10.56° C | 52% | 869.2 hPa | - | 5.81 m/s, 137° | - | - |
| 1778015470 | 10.56° C | 52% | 869.2 hPa | - | 5.81 m/s, 135° | - | - |
* Rain since midnight (hover to see other rain measurements)
** Current wind speed in m/s (hover to see current wind gust speed)